Date String (YYYY-MM-DD hh:mm:ss) UTC,Instrument flags,Ambient pressure (hPa),Sample flow (lpm),Bypass flow (lpm),Sample temperature (°C),Ambient temperature (°C),ASC tube jacket temperature (°C),LED temperature (°C),Box temperature (°C),Sample RH (%),Span deviation,Mass concentration (μg/m³),Mass concentration (μg/m³),Mass concentration (μg/m³)
DateTimeUTC,F1_M11,P_M11,Q1_M11,Q2_M11,T1_M11,T2_M11,T3_M11,T4_M11,T5_M11,U1_M11,ZSPAN_M11,X0_M11,X2_M11,X1_M11
2022-07-05 02:00:00,,0826.1,5.00,0.00,29.2,27.8,00.0,38.0,31.2,22.2,0000.0,0008.35,0002.47,0001.59
2022-07-05 02:01:00,,0826.0,5.00,0.00,29.3,28.0,00.0,38.0,31.2,22.2,0000.0,0008.00,0002.46,0001.61
2022-07-05 02:02:00,,0826.0,5.00,0.00,29.3,28.1,00.0,38.0,31.3,21.5,0000.0,0006.99,0002.43,0001.60
2022-07-05 02:03:00,,0826.0,5.01,0.00,29.3,28.2,00.0,38.0,31.3,22.5,0000.0,0007.09,0002.45,0001.60
2022-07-05 02:04:00,,0826.0,5.01,0.00,29.3,28.3,00.0,38.0,31.3,23.2,0000.0,0007.00,0002.40,0001.58
2022-07-05 02:05:00,,0826.0,5.00,0.00,29.4,28.4,00.0,38.1,31.4,23.0,0000.0,0006.42,0002.33,0001.56
2022-07-05 02:06:00,,0826.0,5.00,0.00,29.4,28.5,00.0,38.1,31.4,23.4,0000.0,0005.45,0002.30,0001.56
2022-07-05 02:07:00,,0826.0,5.01,0.00,29.4,28.5,00.0,38.1,31.4,24.3,0000.0,0005.50,0002.32,0001.56
2022-07-05 02:08:00,,0826.0,5.00,0.00,29.5,28.0,00.0,38.1,31.4,24.1,0000.0,0004.59,0002.28,0001.55
2022-07-05 02:09:00,,0826.0,5.00,0.00,29.4,27.5,00.0,38.0,31.3,22.9,0000.0,0004.17,0002.35,0001.59
2022-07-05 02:10:00,,0826.0,5.01,0.00,29.4,27.4,00.0,38.1,31.2,22.5,0000.0,0004.42,0002.44,0001.65
2022-07-05 02:11:00,,0826.0,4.99,0.00,29.4,27.5,00.0,38.1,31.2,22.7,0000.0,0004.23,0002.36,0001.66
2022-07-05 02:12:00,,0826.0,5.00,0.00,29.3,27.6,00.0,38.1,31.2,23.1,0000.0,0004.10,0002.35,0001.68
2022-07-05 02:13:00,,0826.0,5.00,0.00,29.3,27.8,00.0,38.1,31.2,23.5,0000.0,0004.12,0002.38,0001.70
2022-07-05 02:14:00,,0825.9,5.00,0.00,29.3,27.9,00.0,38.1,31.3,22.2,0000.0,0003.96,0002.35,0001.71
2022-07-05 02:15:00,,0825.9,5.00,0.00,29.4,28.0,00.0,38.1,31.3,21.8,0000.0,0003.82,0002.35,0001.71
2022-07-05 02:16:00,,0826.0,5.00,0.00,29.4,28.2,00.0,38.1,31.3,22.4,0000.0,0003.82,0002.35,0001.73
2022-07-05 02:17:00,,0825.8,4.99,0.00,29.4,28.3,00.0,38.1,31.4,22.4,0000.0,0003.86,0002.37,0001.75
2022-07-05 02:18:00,,0825.9,5.00,0.00,29.5,28.4,00.0,38.1,31.4,20.2,0000.0,0003.83,0002.37,0001.78
2022-07-05 02:19:00,,0825.9,5.00,0.00,29.5,28.5,00.0,38.2,31.5,20.3,0000.0,0004.10,0002.45,0001.81
2022-07-05 02:20:00,,0825.9,5.00,0.00,29.5,28.2,00.0,38.1,31.5,21.3,0000.0,0005.28,0002.39,0001.79
2022-07-05 02:21:00,,0825.9,5.00,0.00,29.5,27.6,00.0,38.1,31.4,22.5,0000.0,0005.01,0002.28,0001.74
2022-07-05 02:22:00,,0825.9,5.01,0.00,29.5,27.5,00.0,38.1,31.3,22.7,0000.0,0006.21,0002.29,0001.73
2022-07-05 02:23:00,,0825.9,4.99,0.00,29.4,27.5,00.0,38.1,31.2,22.6,0000.0,0006.22,0002.27,0001.72
2022-07-05 02:24:00,,0825.8,4.99,0.00,29.4,27.6,00.0,38.1,31.2,22.5,0000.0,0006.29,0002.25,0001.69
2022-07-05 02:25:00,,0825.9,5.01,0.00,29.4,27.8,00.0,38.1,31.2,22.6,0000.0,0006.86,0002.25,0001.70
2022-07-05 02:26:00,,0825.9,5.00,0.00,29.4,27.9,00.0,38.1,31.3,21.7,0000.0,0007.01,0002.27,0001.71
2022-07-05 02:27:00,,0825.9,5.00,0.00,29.4,28.1,00.0,38.1,31.3,22.0,0000.0,0007.11,0002.27,0001.71
2022-07-05 02:28:00,,0826.0,5.01,0.00,29.4,28.2,00.0,38.1,31.4,22.1,0000.0,0007.59,0002.26,0001.71
2022-07-05 02:29:00,,0826.0,5.01,0.00,29.5,28.3,00.0,38.2,31.4,22.1,0000.0,0007.58,0002.19,0001.69
2022-07-05 02:30:00,,0826.0,5.00,0.00,29.5,28.4,00.0,38.2,31.5,21.1,0000.0,0007.50,0002.15,0001.64
2022-07-05 02:31:00,,0826.0,5.01,0.00,29.5,28.5,00.0,38.2,31.5,20.7,0000.0,0006.27,0002.10,0001.61
2022-07-05 02:32:00,,0826.0,5.00,0.00,29.5,28.0,00.0,38.2,31.4,21.8,0000.0,0006.12,0002.09,0001.60
2022-07-05 02:33:00,,0826.2,5.00,0.00,29.5,27.2,00.0,38.1,31.3,22.3,0000.0,0005.00,0002.04,0001.58
2022-07-05 02:34:00,,0826.4,4.99,0.00,29.4,26.9,00.0,38.1,31.2,22.5,0000.0,0004.82,0002.04,0001.57
2022-07-05 02:35:00,,0826.5,5.00,0.00,29.4,27.0,00.0,38.1,31.1,23.4,0000.0,0004.70,0002.03,0001.57
2022-07-05 02:36:00,,0826.5,4.99,0.00,29.3,27.1,00.0,38.1,31.1,24.6,0000.0,0004.08,0002.01,0001.54
2022-07-05 02:37:00,,0826.5,5.00,0.00,29.3,27.3,00.0,38.1,31.1,25.2,0000.0,0003.97,0001.99,0001.52
2022-07-05 02:38:00,,0826.5,5.00,0.00,29.3,27.5,00.0,38.1,31.1,25.1,0000.0,0004.14,0001.99,0001.49
2022-07-05 02:39:00,,0826.5,5.00,0.00,29.3,27.6,00.0,38.1,31.1,24.6,0000.0,0003.89,0002.00,0001.45
2022-07-05 02:40:00,,0826.5,5.00,0.00,29.3,27.8,00.0,38.1,31.2,24.4,0000.0,0003.92,0002.00,0001.41
2022-07-05 02:41:00,,0826.6,5.00,0.00,29.3,27.9,00.0,38.1,31.2,24.3,0000.0,0003.92,0001.93,0001.38
2022-07-05 02:42:00,,0826.6,5.00,0.00,29.3,28.0,00.0,38.1,31.2,24.3,0000.0,0004.18,0001.89,0001.36
2022-07-05 02:43:00,,0826.6,5.00,0.00,29.3,28.1,00.0,38.1,31.3,24.5,0000.0,0004.15,0001.86,0001.33
2022-07-05 02:44:00,,0826.5,4.99,0.00,29.4,28.2,00.0,38.1,31.3,24.6,0000.0,0004.08,0001.83,0001.30
2022-07-05 02:45:00,,0826.5,5.00,0.00,29.4,28.3,00.0,38.1,31.3,24.3,0000.0,0004.01,0001.79,0001.28
2022-07-05 02:46:00,,0826.6,4.99,0.00,29.4,28.4,00.0,38.1,31.4,23.8,0000.0,0004.12,0001.80,0001.27
2022-07-05 02:47:00,,0826.6,4.98,0.00,29.4,28.5,00.0,38.2,31.4,23.7,0000.0,0004.53,0001.86,0001.28
2022-07-05 02:48:00,,0826.6,5.00,0.00,29.5,28.5,00.0,38.2,31.5,23.4,0000.0,0004.50,0001.87,0001.29
2022-07-05 02:49:00,,0826.7,5.01,0.00,29.5,28.0,00.0,38.1,31.4,23.2,0000.0,0004.26,0001.88,0001.31
2022-07-05 02:50:00,,0826.7,5.00,0.00,29.5,27.6,00.0,38.1,31.3,23.5,0000.0,0003.75,0001.85,0001.35
2022-07-05 02:51:00,,0826.8,5.00,0.00,29.4,27.5,00.0,38.1,31.3,22.8,0000.0,0004.16,0001.96,0001.40
2022-07-05 02:52:00,,0826.9,5.00,0.00,29.4,27.5,00.0,38.1,31.2,23.0,0000.0,0004.43,0002.09,0001.48
2022-07-05 02:53:00,,0826.9,5.01,0.00,29.4,27.6,00.0,38.1,31.2,24.2,0000.0,0004.47,0002.20,0001.54
2022-07-05 02:54:00,,0827.0,5.00,0.00,29.4,27.8,00.0,38.1,31.2,24.5,0000.0,0004.77,0002.27,0001.57
2022-07-05 02:55:00,,0827.1,5.00,0.00,29.4,27.9,00.0,38.1,31.3,25.3,0000.0,0006.80,0002.40,0001.59
2022-07-05 02:56:00,,0827.2,5.00,0.00,29.4,28.0,00.0,38.1,31.3,25.8,0000.0,0007.69,0002.44,0001.59
2022-07-05 02:57:00,,0827.2,5.00,0.00,29.4,28.2,00.0,38.1,31.3,25.6,0000.0,0007.86,0002.43,0001.58
2022-07-05 02:58:00,,0827.3,5.00,0.00,29.4,28.3,00.0,38.2,31.4,24.3,0000.0,0007.62,0002.37,0001.56
2022-07-05 02:59:00,,0827.2,5.00,0.00,29.5,28.4,00.0,38.2,31.4,23.2,0000.0,0007.59,0002.32,0001.53
